Location: Poughquag
(41.6090°N, 73.6820°W)
Time: 03:17:44
(UTC-04:00)

Vanguard 1 Rocket - Pass Details

Date: 04 June 2020
Orbit: 653 x 4224 km, 34.3° (Epoch: 06 July)

Event Time Altitude Azimuth Distance (km) Brightness Sun altitude
Rises 03:00:08 0° 265° (W) 7,743 11.8 -19.5°
Reaches altitude 10° 03:06:09 10° 263° (W) 6,248 11.3 -18.9°
Maximum altitude 03:23:03 61° 190° (S) 2,207 9.0 -17.1°
Drops below altitude 10° 03:31:33 10° 112° (ESE) 3,329 10.5 -16.1°
Sets 03:33:47 0° 108° (ESE) 4,015 11.0 -15.9°
